Location: *
(59.9180°N, 10.7390°E)
Time: 21:59:44
(UTC+00:00)

Daily predictions for brighter satellites

Satellite Brightness Start Highest point End
(mag) Time Altitude Azimuth Time Altitude Azimuth Time Altitude Azimuth
SL-16 R/B 2.6 15:03:38 10° S 15:09:05 49° ESE 15:14:33 10° NE
SJ-12 3.9 15:05:14 10° SSE 15:09:22 76° ENE 15:13:33 10° NNW
H-2A R/B 2.0 15:05:54 10° NNE 15:10:04 90° NNW 15:14:10 10° SSW
CZ-4B R/B 2.5 15:07:04 10° NNE 15:10:15 30° E 15:13:24 10° SSE
Cosmos 1697 Rocket 3.1 15:08:37 10° WSW 15:14:11 57° NW 15:19:46 10° NE
Cosmos 1844 Rocket 3.1 15:10:19 10° NW 15:15:54 71° WSW 15:21:28 10° SSE
YAOGAN 1 4.2 15:13:37 10° ENE 15:15:55 14° NE 15:18:13 10° NNE
Cosmos 2219 Rocket 3.9 15:14:41 10° SE 15:17:31 14° E 15:20:23 10° ENE
Lacrosse 4 Rocket 2.4 15:13:59 10° W 15:17:42 33° NNW 15:21:29 10° NE
Cosmos 1733 Rocket 3.9 15:17:12 10° N 15:20:58 27° ENE 15:24:44 10° ESE
Tsikada Rocket 4.2 15:15:11 10° SSE 15:21:24 56° E 15:27:37 10° NNE
Cosmos 1536 4.2 15:21:25 10° N 15:24:23 19° NE 15:27:19 10° ESE
Cosmos 2297 4.3 15:19:23 10° NW 15:24:43 37° NNE 15:30:00 10° E
APEX 3.6 15:23:48 10° WSW 15:26:22 34° NW 15:29:06 10° NNE
NOSS 2-3 (C) 4.2 15:21:59 10° WSW 15:26:57 74° NNW 15:33:20 10° ENE
Cosmos 1602 3.8 15:23:13 10° N 15:27:02 54° ENE 15:30:50 10° SSE
Cosmos 1869 Rocket 3.6 15:23:45 10° N 15:28:08 65° ENE 15:32:33 10° SSE
SAR-Lupe-4 3.8 15:24:46 10° NNE 15:28:23 74° WNW 15:31:58 10° SSW
Cosmos 1500 4.2 15:25:38 10° N 15:28:48 24° ENE 15:31:57 10° ESE
NOSS 2-2 (E) 4.3 15:25:25 10° SSW 15:28:57 36° SE 15:33:07 10° ENE
Cosmos 1943 Rocket 3.2 15:24:39 10° NW 15:29:36 29° NNE 15:34:31 10° ENE
Cosmos 1340 2.7 15:26:59 10° NNW 15:30:45 61° ENE 15:34:30 10° SSE
OPS 8737 4.3 15:27:51 10° SW 15:31:05 68° SSE 15:33:45 12° ENE
SMAP 3.4 15:27:56 10° SE 15:32:21 44° ENE 15:36:47 10° N
ATLAS 2AS CENTAUR R/B 3.8 15:25:07 10° S 15:32:21 39° ESE 15:39:19 11° ENE
Landsat 5 3.3 15:28:35 10° NNE 15:32:29 83° ESE 15:36:29 10° SSW
SL-16 R/B 3.2 15:27:30 10° NNE 15:33:29 53° WNW 15:39:26 10° SW
Cosmos 304 Rocket 3.7 15:32:20 10° NNW 15:37:11 82° ENE 15:42:00 10° SE
Cosmos 2346 Rocket 4.4 15:32:26 10° S 15:38:32 76° E 15:44:37 10° NNE
Meteor 1-5 Rocket 4.4 15:33:03 10° NNW 15:38:34 48° ENE 15:43:53 10° SE
Cosmos 2344 4.0 15:30:40 10° W 15:38:34 73° N 15:48:48 10° E
CZ-4 R/B 2.7 15:36:05 10° E 15:38:45 18° NE 15:41:25 10° N
ALOS 2.6 15:35:04 10° S 15:39:45 73° WSW 15:44:27 10° NNW
Cosmos 1302 Rocket 4.0 15:35:01 10° NNW 15:40:23 87° ENE 15:45:40 10° SSE
Cosmos 332 Rocket 4.3 15:37:09 10° NW 15:42:01 65° WSW 15:46:49 10° SSE
Cosmos 1048 Rocket 4.4 15:36:51 10° S 15:42:04 52° ESE 15:47:18 10° NE
COSMOS 2428 4.1 15:38:26 10° SSE 15:42:27 20° ESE 15:45:47 12° ENE
NOSS 7 (D) 3.8 15:40:48 10° WNW 15:43:36 85° NNE 15:46:37 10° ESE
H-2A R/B 3.1 15:40:16 10° SE 15:43:44 39° ENE 15:47:13 10° N
Cosmos 292 Rocket 4.3 15:42:19 10° NNW 15:46:54 38° NE 15:51:27 10° ESE
Cosmos 1680 Rocket 4.4 15:42:33 10° WSW 15:47:35 43° NW 15:52:41 10° NNE
IRS-1C Rocket 4.1 15:47:13 10° SSE 15:52:28 70° ENE 15:57:44 10° NNW
YAOGAN 6 3.8 15:49:51 10° ESE 15:52:37 22° ENE 15:55:26 10° N
Cosmos 1328 Rocket 4.1 15:49:05 10° SSW 15:53:22 58° WNW 15:57:40 10° N
Meteor 1-28 Rocket 3.2 15:51:12 10° NNE 15:54:59 90° WNW 15:58:45 10° SSW
SeaSat 1 3.3 15:51:28 11° E 15:55:29 31° NNE 15:59:48 10° NW
Cosmos 921 Rocket 4.0 15:52:51 10° NNW 15:56:25 25° NE 15:59:34 12° E
COSMOS 2455 2.9 15:50:30 10° SSW 15:56:29 69° SE 16:01:38 14° NE
Okean O Rocket 2.1 15:52:41 10° S 15:57:00 63° WSW 16:01:21 10° NNW
Helios 1A Rocket 3.5 15:53:39 10° S 15:57:44 62° WSW 16:01:49 10° NNW
CENTAUR R/B 4.5 15:51:19 10° WNW 15:58:32 43° SW 16:06:27 10° SSE
USA 215 4.0 15:56:48 12° E 16:02:26 41° SSE 16:08:33 10° SW
Cosmos 2279 Rocket 4.0 15:56:34 10° NNW 16:02:51 81° ENE 16:09:09 10° SSE
CZ-4B R/B 3.9 15:58:27 10° S 16:03:43 59° WSW 16:09:07 10° NNW
Cosmos 1346 Rocket 3.0 16:00:13 10° NNW 16:04:10 74° WSW 16:08:08 10° S
Cosmos 1782 3.0 16:00:24 10° S 16:04:16 53° E 16:08:11 10° NNE
Cosmos 2228 Rocket 3.2 16:00:20 10° S 16:04:55 88° ESE 16:09:34 10° NNE
Cosmos 2322 4.3 16:01:13 10° S 16:06:31 40° ESE 16:10:35 16° NE
Genesis I 3.2 16:02:38 10° WNW 16:06:37 65° NNE 16:10:05 13° ESE
H-2A R/B 3.6 16:06:22 14° NE 16:06:40 14° NE 16:09:13 10° N
Cosmos 1634 Rocket 4.3 16:01:25 10° NNW 16:07:34 70° W 16:13:42 10° S
Cosmos 1315 Rocket 3.2 16:05:28 10° S 16:09:16 43° E 16:12:31 14° NNE
Cosmos 2278 Rocket 2.2 16:03:33 10° NW 16:09:17 89° NE 16:14:58 10° SE
Okean-O 2.7 16:05:10 10° SE 16:09:28 52° ENE 16:13:49 10° N
NOSS 8 (E) 4.4 16:07:53 10° SW 16:10:55 62° SE 16:12:47 23° ENE
ASTEX 1 4.4 16:08:13 10° N 16:13:00 48° WNW 16:17:43 10° SW
Cosmos 1606 3.1 16:09:41 10° SSW 16:13:27 65° WNW 16:17:16 10° N
Cosmos 1666 3.5 16:10:21 10° N 16:13:42 29° ENE 16:17:00 10° SE
Cosmos 1867 3.7 16:09:43 10° WNW 16:15:10 61° NNE 16:19:38 15° E
Radarsat 4.5 16:11:06 10° SSE 16:16:18 80° ENE 16:21:33 10° NNW
AQUARIUS 4.1 16:13:51 10° SSE 16:18:22 82° ENE 16:22:54 10° NNW
Envisat 3.0 16:13:42 10° SE 16:18:40 58° ENE 16:23:41 10° NNW
Cosmos 1689 Rocket 2.0 16:16:15 14° NNE 16:18:49 89° ENE 16:21:52 10° SSW
NOSS 2-2 (D) 3.6 16:15:25 10° SW 16:19:11 59° SE 16:21:59 22° ENE
Cosmos 1515 Rocket 4.3 16:15:31 10° SSW 16:19:45 52° WNW 16:24:02 10° N
Cosmos 1400 Rocket 3.0 16:15:57 10° SSW 16:20:04 76° WNW 16:24:08 10° NNE
Cosmos 1707 Rocket 3.8 16:16:50 10° S 16:21:10 50° E 16:25:14 12° NNE
Cosmos 2360 Rocket 2.2 16:16:59 10° SSW 16:22:38 69° ESE 16:26:57 18° NE
Cosmos 2369 Rocket 2.9 16:19:12 10° NW 16:24:21 35° NNE 16:27:18 21° ENE
Cosmos 1151 Rocket 4.5 16:20:59 10° SW 16:25:04 37° WNW 16:29:09 10° N
Cosmos 1992 Rocket 3.9 16:20:57 10° NNW 16:26:13 86° ENE 16:31:28 10° SSE
Meteor 1-11 Rocket 3.8 16:21:36 10° NNW 16:27:37 80° ENE 16:33:37 10° SSE
Cosmos 1980 Rocket 3.1 16:23:43 10° W 16:29:08 41° NNW 16:33:24 16° NE
NOSS 3-1 (C) 3.8 16:23:26 10° WNW 16:29:55 68° N 16:35:29 20° E
Cosmos 1743 4.3 16:26:55 10° N 16:28:39 19° NNE 16:28:39 19° NNE
NOSS 2-3 (E) 4.4 16:24:54 10° W 16:30:05 63° N 16:34:21 22° ENE
Nadezhda 4 Rocket 4.4 16:25:58 10° SSE 16:31:51 42° E 16:37:43 10° NNE
Cosmos 1908 Rocket 3.8 16:27:58 10° N 16:32:16 45° ENE 16:36:30 10° SE
Cosmos 2333 Rocket 2.8 16:28:13 10° S 16:33:31 40° ESE 16:36:30 23° ENE
COSMO-SKYMED 1 3.9 16:34:56 21° ESE 16:34:56 21° ESE 16:37:36 10° SE
YAOGAN 3 4.5 16:31:52 10° SSE 16:36:14 79° ENE 16:40:38 10° NNW
USA 229 DEB 3.8 16:30:05 10° WNW 16:37:01 69° N 16:42:02 22° E
USA 229 3.8 16:30:11 10° WNW 16:37:07 69° N 16:42:07 22° E
Elektron 3 4.0 16:35:33 10° WNW 16:38:30 82° N 16:40:33 27° E
ISS -0.9 16:38:32 10° SW 16:40:24 14° SSW 16:42:16 10° SSE
NOSS 2-3 (D) 4.4 16:35:36 10° W 16:40:48 63° N 16:44:38 25° ENE
RESURS DK-1 3.4 16:37:33 10° S 16:41:00 26° ESE 16:41:15 26° ESE
Meteor 1-27 Rocket 4.1 16:36:19 10° SSE 16:41:42 42° E 16:46:34 13° NNE
NOSS 3-1 (A) 3.8 16:35:44 10° W 16:42:11 67° N 16:46:59 24° E
Cosmos 1939 Rocket 3.7 16:42:55 29° NE 16:42:55 29° NE 16:45:50 10° N
CZ-4B R/B 2.9 16:39:23 10° N 16:42:41 38° WNW 16:45:57 10° SW
Cosmos 2237 Rocket 3.3 16:39:10 10° SSE 16:43:32 23° ESE 16:43:57 23° E
NOSS 3-4 (A) 3.8 16:38:58 10° SSW 16:44:51 51° SE 16:48:18 26° ENE
NOSS 3-4 (C) 3.8 16:39:05 10° SSW 16:44:57 51° SE 16:48:24 26° ENE
H-2A R/B 4.2 16:42:32 10° N 16:45:36 20° NW 16:48:37 10° W
COBE Rocket 3.8 16:42:49 15° NNE 16:46:35 56° E 16:51:09 10° S
Cosmos 2322 Rocket 2.5 16:41:32 10° SW 16:47:08 64° NW 16:51:08 20° NE
Cosmos 1812 3.0 16:45:09 10° SSE 16:48:49 42° E 16:49:27 39° ENE
NOSS 8 (H) 4.2 16:46:29 10° SW 16:49:34 79° SSE 16:50:22 49° ENE
YAOGAN 1 2.7 16:46:59 10° SE 16:51:11 51° ENE 16:55:25 10° N
Exosat Rocket 4.2 16:47:39 10° S 16:52:12 33° ESE 16:53:10 31° E
SL-16 R/B 2.7 16:47:38 10° WSW 16:53:13 56° NW 16:57:04 20° NNE
NOSS 2-2 (C) 3.4 16:52:51 10° WSW 16:56:46 87° SSE 16:58:32 37° ENE
Lacrosse 4 Rocket 2.6 16:53:49 10° NW 16:57:21 27° N 16:58:01 26° NNE
Cosmos 1733 Rocket 3.6 16:54:48 10° NNW 16:59:07 59° W 17:03:25 10° S
Cosmos 1697 Rocket 4.0 16:54:18 10° WNW 16:59:14 30° NNW 17:02:04 20° NNE
NOAA 12 4.4 16:54:14 10° S 16:59:32 71° WSW 17:04:51 10° NNW
Cosmos 2219 Rocket 2.3 16:54:51 10° SSW 17:00:18 54° ESE 17:02:43 32° ENE
Cosmos 1536 2.8 16:57:19 10° NNW 17:01:23 85° W 17:05:25 10° S
Ariane Rocket 3.4 17:00:26 33° E 17:01:52 40° ENE 17:06:35 10° N
PSLV R/B 4.0 16:59:02 18° NNE 17:02:08 82° WNW 17:06:18 10° SSW
Cosmos 1500 3.9 17:00:59 10° NNW 17:04:42 54° W 17:08:23 10° S
Cosmos 494 Rocket 4.0 17:00:01 10° SW 17:05:19 80° NW 17:08:34 24° NNE
Cosmos 1656 Rocket 4.4 17:00:38 10° NW 17:05:33 33° NNE 17:06:34 31° NE
Cosmos 2297 3.6 17:03:48 10° NW 17:09:35 87° NE 17:14:46 13° SE
SMAP 4.4 17:05:22 10° SSW 17:09:47 41° W 17:14:13 10° NNW
NOSS 8 (F) 4.4 17:07:14 10° WSW 17:10:19 67° NNW 17:10:33 64° N
Cosmos 1269 Rocket 4.0 17:05:23 10° SSW 17:10:43 84° WNW 17:13:46 26° NNE
CZ-4 R/B 1.1 17:09:25 10° SSE 17:13:19 87° ENE 17:17:13 10° NNW
Cosmos 1980 4.3 17:08:26 10° S 17:13:30 35° ESE 17:13:45 35° ESE
Sich 1 Rocket 3.6 17:09:45 10° N 17:14:07 51° ENE 17:14:11 51° ENE
Cosmos 1943 Rocket 2.3 17:08:56 10° NW 17:14:31 54° NE 17:16:12 40° E
Cosmos 2237 4.4 17:09:15 10° SW 17:15:00 73° NW 17:18:09 28° NE
Cosmos 1441 Rocket 3.0 17:11:45 10° NNW 17:15:39 72° ENE 17:16:27 52° SE
SL-16 R/B 4.5 17:11:37 10° N 17:16:00 21° NW 17:20:23 10° W
NOSS 2-3 (C) 4.5 17:12:52 10° WNW 17:18:18 65° N 17:20:51 38° ENE
NOSS 2-2 (E) 3.7 17:15:08 10° WSW 17:19:13 76° NNW 17:20:30 48° NE
Okean 2 Rocket 4.4 17:16:10 10° N 17:18:27 26° NNE 17:18:27 26° NNE
Cosmos 1763 Rocket 4.4 17:18:03 10° NNW 17:22:08 30° NNE 17:22:08 30° NNE
Lacrosse 5 rocket 3.2 17:19:43 10° S 17:21:46 18° SSE 17:21:46 18° SSE
SKYMED 2 4.1 17:23:37 42° SE 17:23:37 42° SE 17:26:57 10° S
ATLAS 2AS CENTAUR R/B 3.0 17:14:42 10° SW 17:22:47 83° SE 17:26:45 34° ENE
CSL-04 Rocket 3.5 17:19:43 10° SSE 17:25:01 90° E 17:30:23 10° NNW
COSMOS 2428 2.6 17:20:11 10° SSW 17:25:51 72° SE 17:27:49 42° NE
YAOGAN 6 3.0 17:22:20 10° S 17:25:51 61° WSW 17:29:26 10° NNW
Cosmos 1782 Rocket 3.4 17:22:12 10° NNW 17:26:37 76° ENE 17:28:56 27° SSE
Cosmos 292 Rocket 4.3 17:22:37 10° NW 17:27:26 60° WSW 17:32:13 10° SSE
SL-4 R/B 3.8 17:28:36 10° SSW 17:31:03 20° S 17:31:03 20° S
SeaSat 1 2.3 17:31:15 49° ESE 17:32:34 75° NE 17:37:32 10° NW
Cosmos 921 Rocket 2.9 17:30:57 10° NNW 17:35:12 81° WSW 17:36:26 46° SSE
Cosmos 2251 Rocket 3.5 17:30:27 10° SSW 17:35:40 61° ESE 17:36:14 57° E
Cosmos 1092 Rocket 3.9 17:29:57 10° S 17:36:12 68° E 17:42:25 10° NNE
NOSS 0 Rocket 4.1 17:30:30 10° SSW 17:36:31 53° ESE 17:37:29 48° E
CSL-04 Debris 4.3 17:31:54 10° SSE 17:37:22 77° WSW 17:42:51 10° NNW
Cosmos 2242 Rocket 3.5 17:35:19 10° S 17:39:53 79° ESE 17:40:15 73° NE
Meteor 2-9 Rocket 4.2 17:35:55 10° NNW 17:41:47 63° ENE 17:43:20 47° SE
COSMOS 2455 3.3 17:36:47 10° WSW 17:42:43 55° NNW 17:44:47 38° NNE
Cosmos 1862 Rocket 3.7 17:38:28 10° SSW 17:42:50 72° WNW 17:44:17 41° N
Uosat 12 SS-18 rocket 4.2 17:37:38 10° WNW 17:43:07 88° SSW 17:43:46 68° SE
Genesis I 4.4 17:40:25 10° WNW 17:44:07 40° SW 17:45:01 34° SSW
Cosmos 2333 4.3 17:39:12 10° SW 17:44:58 76° NW 17:47:03 41° NNE
H-2A R/B 3.2 17:46:59 29° NNE 17:46:59 29° NNE 17:49:43 10° N
Cosmos 1315 Rocket 4.5 17:42:20 10° SW 17:45:58 32° WNW 17:48:14 19° N
USA 215 3.3 17:44:09 45° ESE 17:46:11 66° SSE 17:52:42 10° WSW
Okean-O 4.4 17:42:12 10° SSW 17:46:11 32° W 17:50:12 10° NNW
Cosmos 1666 3.8 17:45:51 10° NNW 17:49:27 43° W 17:53:00 10° SSW
Cosmos 2322 4.0 17:44:50 10° SW 17:50:32 66° NW 17:52:31 40° NNE
Cosmos 2278 Rocket 4.3 17:48:09 10° NW 17:52:48 27° WSW 17:57:27 10° SSW
Cosmos 2344 4.0 17:45:18 10° WNW 17:53:51 87° NNE 17:59:09 36° ESE
ARGOS 4.0 17:56:46 34° NNE 17:56:46 34° NNE 18:00:09 10° NNW
NOAA 11 4.3 17:51:22 10° S 17:56:50 74° WSW 18:02:22 10° NNW
S3M 3.8 17:52:05 10° NNW 17:58:24 72° ENE 18:00:12 48° SE
Cosmos 1867 3.8 17:53:30 10° WNW 17:58:57 65° SW 18:00:20 47° SSE
MOS 1 4.1 18:01:37 71° E 18:01:58 73° ENE 18:07:40 10° NNW
IRS-1A Rocket 4.3 18:00:58 38° SSE 18:03:22 87° ENE 18:09:21 10° NNW
Cosmos 2360 Rocket 3.0 18:01:33 10° WSW 18:07:00 45° NNW 18:08:44 35° N
Cosmos 2369 Rocket 2.0 18:03:28 10° NW 18:09:07 81° NE 18:09:07 81° NE
NOSS 2-2 (D) 4.1 18:05:45 10° W 18:09:23 58° NW 18:09:23 58° NW
COSMO-SKYMED 1 3.4 18:12:09 44° SW 18:12:09 44° SW 18:15:10 10° SSW
Cosmos 1553 Rocket 4.0 18:06:55 10° NNW 18:13:16 81° W 18:19:39 10° S
SL-16 R/B 4.3 18:09:07 10° S 18:09:56 14° S 18:09:56 14° S
Cosmos 1980 Rocket 3.5 18:09:40 10° WNW 18:14:33 28° N 18:15:09 27° N
Cosmos 1939 Rocket 4.5 18:18:49 29° NW 18:18:49 29° NW 18:21:03 10° NNW
Cosmos 2333 Rocket 2.4 18:11:51 10° SW 18:17:36 67° NW 18:18:31 58° N
RESURS DK-1 3.7 18:14:34 10° SW 18:17:10 37° WSW 18:17:10 37° WSW
NOSS 3-1 (C) 3.8 18:14:21 10° WNW 18:21:16 84° SSW 18:22:54 60° SE
NOSS 2-3 (E) 4.4 18:15:41 10° WNW 18:21:25 79° NNE 18:21:47 76° ENE
Cosmos 1428 Rocket 4.3 18:16:57 10° S 18:23:09 86° E 18:23:49 72° NNE
Meteor 1-27 Rocket 4.5 18:19:21 10° SW 18:25:00 53° WNW 18:29:00 20° N
Cosmos 2237 Rocket 2.5 18:21:11 10° SSW 18:25:48 60° SSW 18:25:48 60° SSW
YAOGAN 1 4.3 18:23:39 10° SSW 18:27:30 31° W 18:31:24 10° NNW
USA 229 DEB 3.8 18:21:15 10° WNW 18:28:19 79° SW 18:29:29 65° SSE
USA 229 3.8 18:21:22 10° WNW 18:28:25 79° SW 18:29:34 65° SSE
NOSS 2-3 (D) 4.4 18:26:22 10° WNW 18:32:04 82° NNE 18:32:04 82° NNE
Cosmos 2322 Rocket 3.5 18:27:10 10° W 18:32:11 31° NNW 18:32:56 30° N
NOSS 3-1 (A) 3.7 18:26:45 10° WNW 18:33:38 90° SW 18:34:26 75° ESE
NOSS 3-4 (A) 3.5 18:29:19 10° WSW 18:35:34 79° NNW 18:35:44 78° N
NOSS 3-4 (C) 3.5 18:29:25 10° WSW 18:35:41 79° NNW 18:35:50 78° N
Lacrosse 4 Rocket 3.6 18:32:53 10° NW 18:34:20 20° NW 18:34:20 20° NW
SL-16 R/B 3.5 18:33:29 10° WNW 18:38:28 30° NNW 18:38:56 29° N
Cosmos 2026 Rocket 4.0 18:33:30 10° SSW 18:39:33 73° WNW 18:40:54 54° N
Ariane Rocket 3.7 18:40:38 51° WSW 18:40:47 51° W 18:45:46 10° NNW
Cosmos 2219 Rocket 2.8 18:38:53 10° WSW 18:44:24 52° NW 18:44:27 52° NW
Cosmos 1697 Rocket 4.2 18:39:56 10° NW 18:43:48 27° N 18:43:48 27° N
CZ-4 R/B 4.2 18:46:27 10° SW 18:48:55 16° W 18:51:24 10° NW
Exosat Rocket 4.4 18:48:27 10° WSW 18:52:16 45° W 18:52:16 45° W
Cosmos 1980 4.5 18:51:38 10° SW 18:55:38 46° WSW 18:55:38 46° WSW
Cosmos 1943 Rocket 2.9 18:52:52 10° NW 18:57:45 50° W 18:57:45 50° W
Lacrosse 5 rocket 4.3 18:57:19 10° SW 18:57:26 11° SW 18:57:26 11° SW
SeaSat 1 4.1 19:11:02 31° W 19:11:02 31° W 19:14:55 10° NW
COSMOS 2428 3.7 19:05:05 10° WSW 19:09:50 42° NW 19:09:50 42° NW
ATLAS 2AS CENTAUR R/B 3.1 19:06:13 10° W 19:14:11 69° NNW 19:14:11 69° NNW
H-2A R/B 4.1 19:27:37 21° NNW 19:27:37 21° NNW 19:29:22 10° NNW
COSMOS 2455 4.1 19:23:55 10° WNW 19:27:55 35° NW 19:27:55 35° NW
USA 215 3.9 19:31:30 49° WSW 19:31:30 49° WSW 19:36:12 10° W
Cosmos 2360 Rocket 4.2 19:47:29 10° WNW 19:50:30 23° NW 19:50:30 23° NW
Cosmos 2369 Rocket 4.1 19:47:53 10° NW 19:50:55 25° WNW 19:50:55 25° WNW
Cosmos 1980 Rocket 4.4 19:54:55 10° NW 19:56:55 20° NNW 19:56:55 20° NNW
Cosmos 2333 Rocket 4.2 19:57:40 10° W 20:00:32 25° WNW 20:00:32 25° WNW
ATLAS 2AS CENTAUR R/B 4.5 20:58:00 10° WNW 21:01:37 30° WNW 21:01:37 30° WNW
